Zurück zum Katalog

ATLAS 5 CENTAUR DEB

LostHEO
NORAD 49378·DEBRIS·🇺🇸 United States

Gestartet Oct 17, 2018 von Cape Canaveral Space Force Station

Loading…

Nächste Überflüge (nächste 24 Stunden)

TLE

VeraltetSource: Space-Track

Epoche: May 13, 2024, 09:10 UTC

1 49378U 18079GF  24134.38207642 -.00000098  00000-0  00000+0 0  9999
2 49378  10.1411 141.9567 4615418 107.8801 306.5325  1.64296039 16032

Verfolge ATLAS 5 CENTAUR DEB in Echtzeit mit AllMySat

Download on the App Store